SCP
7 7 7 6 5 4 4 3 3 3 3 2 1 1 2 2 2 2 3 3 2 2 2 2 2 2 2 2 2 1 1 1 1 1 1 2 1 1 1 1 1 1 1
6 7 7 7 6 5 5 4 4 4 3 2 2 2 2 2 2 3 3 3 2 2 2 2 2 2 2 2 2 1 1 1 1 2 2 2 2 1 1 1 1 1 1
6 6 7 7 7 7 6 5 5 5 4 2 2 2 2 2 3 3 3 3 2 2 2 2 2 2 2 2 2 2 2 2 2 2 2 2 2 2 1 1 1 1 1
6 6 6 7 7 7 7 6 5 5 3 2 2 2 2 2 2 2 3 3 2 2 2 2 2 2 2 2 2 2 2 2 2 2 2 2 2 2 2 1 1 1 1
6 6 6 7 7 7 7 6 5 4 3 2 2 2 2 2 2 2 2 2 2 2 2 2 2 2 2 2 2 2 2 2 2 2 2 2 2 2 2 2 1 1 1
6 6 7 7 6 7 7 6 5 4 3 3 2 2 1 2 2 2 2 2 2 2 2 2 2 2 2 2 2 2 2 2 2 2 2 2 2 2 2 2 2 1 1
7 7 7 7 6 5 5 5 5 5 4 3 2 2 1 1 1 1 1 1 1 2 2 2 2 2 2 2 2 2 2 2 2 2 2 2 2 2 2 2 2 2 1
8 8 7 7 6 5 4 5 5 5 4 3 3 2 1 1 1 1 1 1 1 1 2 2 2 2 2 2 2 2 2 2 2 2 2 3 2 2 2 2 2 2 2
8 8 8 7 6 5 4 5 6 6 5 4 3 3 2 2 2 2 1 1 1 1 2 2 2 2 2 2 2 2 1 2 2 2 2 2 2 2 2 2 2 2 2
7 8 8 7 6 5 5 6 7 7 6 5 3 3 2 2 1 1 1 1 2 2 2 2 1 2 2 3 2 2 1 1 1 2 2 2 2 2 2 2 2 2 2
6 7 8 8 6 5 5 6 8 9 7 5 4 3 3 2 2 1 1 2 2 2 2 2 2 2 3 3 3 2 2 1 1 1 2 2 2 2 2 2 2 2 2
7 7 7 7 7 6 6 7 9 10 8 5 4 3 3 2 2 2 2 2 2 1 1 1 2 2 3 3 3 2 2 1 1 1 2 2 2 2 2 2 2 2 1
6 6 6 6 7 6 6 7 9 9 7 5 4 3 3 2 2 2 2 2 1 1 1 1 2 2 3 3 2 2 1 1 1 1 1 1 1 1 2 2 2 2 1
4 4 4 5 6 6 6 6 7 8 7 5 3 3 2 2 2 2 2 1 1 1 1 1 2 2 2 2 2 1 1 1 1 1 1 1 1 1 1 2 1 1 1
2 3 3 4 5 6 6 6 6 7 6 5 4 3 3 2 2 2 2 1 1 1 1 1 1 2 2 1 2 2 2 1 0 0 0 0 1 1 1 1 1 1 1
2 2 2 3 5 6 7 6 6 7 7 5 4 4 3 2 2 2 1 1 1 1 1 1 1 1 1 1 1 2 2 1 0 0 0 0 0 1 1 1 1 1 1
2 1 1 2 3 5 7 7 7 7 7 6 5 4 3 2 2 2 1 1 1 1 1 1 1 1 1 1 1 1 2 1 0 0 0 0 0 0 0 0 0 0 0
1 1 1 1 2 4 6 7 7 7 7 7 7 6 4 3 2 2 2 2 1 1 1 1 1 1 1 1 1 1 1 1 0 0 0 0 0 0 0 0 0 0 0
1 1 1 1 1 2 4 6 7 7 7 8 7 6 4 3 3 3 3 3 3 2 2 1 0 0 0 0 0 0 1 1 0 0 0 0 0 0 0 0 0 0 0
1 1 1 1 1 2 3 5 7 8 8 8 7 6 5 3 3 3 3 3 3 2 2 1 0 0 0 0 0 0 0 0 0 0 0 0 0 0 0 0 0 0 0
1 1 2 2 1 1 2 3 6 8 9 9 9 8 6 4 4 4 4 3 2 1 1 0 0 0 0 0 0 0 0 0 0 0 0 0 0 0 0 0 0 0 0
2 1 2 2 1 1 1 2 4 7 10 11 11 9 7 4 3 3 2 2 1 1 0 0 0 0 0 0 0 0 0 0 0 0 0 0 0 0 0 0 0 0 0
2 1 1 2 2 1 1 1 2 6 10 12 10 8 6 4 2 2 1 1 0 0 0 0 0 0 0 0 0 0 0 0 0 0 0 0 0 0 0 0 0 0 0
2 1 1 2 2 1 1 0 1 4 7 8 7 6 4 3 2 1 1 1 0 0 0 0 0 0 0 0 0 0 0 0 0 0 0 0 0 0 0 0 0 0 0
2 1 2 2 2 1 0 0 0 1 3 4 4 3 3 2 1 1 1 1 1 0 0 0 0 0 0 0 0 0 0 0 0 0 0 0 0 0 0 0 0 0 0
2 2 2 2 2 1 0 0 0 1 1 2 2 2 1 1 1 1 0 1 1 0 0 0 0 0 0 0 0 0 0 0 0 0 0 0 0 0 0 0 0 0 0
Wind_Speed
3 3 2 2 3 3 4 4 4 5 5 5 5 5 5 5 4 2 3 8 10 10 11 12 12 12 12 12 12 12 12 13 13 13 12 12 11 11 11 11 11 11 11
2 2 2 2 3 2 2 3 4 3 3 3 5 5 5 5 4 3 3 5 8 10 11 12 13 13 13 13 13 13 13 13 13 13 13 12 12 12 12 11 11 11 11
2 2 2 3 3 3 3 3 4 3 4 4 5 5 4 4 4 4 3 3 4 9 11 12 13 13 13 13 14 14 14 14 14 14 14 13 13 13 13 12 12 12 12
2 2 3 2 2 2 2 3 3 2 3 3 3 4 4 3 5 5 4 4 3 4 8 12 13 13 13 13 13 14 14 15 14 14 14 14 14 14 13 14 13 12 12
2 2 2 2 2 2 2 3 2 2 3 3 4 4 4 4 4 5 5 5 4 4 4 8 12 13 14 14 14 14 14 15 15 15 15 14 14 14 14 14 14 13 13
1 2 2 2 2 2 2 2 2 2 3 3 5 4 4 4 4 4 5 4 4 5 5 5 5 8 13 13 13 14 14 14 14 15 15 15 14 14 14 14 14 14 14
2 2 2 2 2 2 3 2 2 3 3 2 2 3 4 5 4 4 3 3 4 4 4 3 3 3 5 12 13 13 14 14 14 15 15 14 13 14 14 15 15 15 15
2 3 2 2 2 2 3 3 2 2 3 2 2 2 2 3 2 3 2 3 4 3 3 5 4 3 3 3 7 12 12 12 13 13 14 13 13 13 14 15 15 16 16
2 2 2 2 3 3 3 3 3 3 3 3 2 1 1 2 2 2 3 3 3 3 3 3 4 4 4 3 3 7 10 10 11 12 13 12 12 13 14 15 16 15 15
2 2 2 3 3 3 2 3 2 3 3 3 2 2 2 1 1 2 2 2 3 4 4 4 4 3 4 3 4 6 8 8 9 10 11 11 11 12 13 14 15 15 16
3 2 3 2 3 2 2 3 3 3 3 2 1 1 2 2 2 2 3 2 3 3 3 4 3 3 4 3 3 5 8 8 7 7 8 9 10 11 12 14 14 15 15
1 2 2 2 2 2 3 3 3 4 3 2 2 2 1 2 2 2 3 3 3 3 4 4 3 4 4 3 5 7 7 8 8 7 8 8 9 10 10 12 13 14 15
1 1 2 2 2 2 3 2 2 3 3 2 2 2 1 2 2 2 2 3 3 3 3 3 3 3 3 2 3 7 7 8 8 8 8 9 9 9 9 9 10 11 11
1 1 1 2 2 2 3 2 2 2 1 2 3 2 2 2 3 2 2 2 3 3 3 3 1 2 1 1 3 6 4 7 8 8 8 8 8 8 7 7 7 7 8
2 1 1 2 2 2 2 2 2 1 1 2 3 2 2 2 3 2 2 2 2 3 4 3 1 1 0 1 4 3 4 6 8 8 8 8 8 7 7 7 6 6 6
2 2 2 2 2 2 2 2 2 2 2 2 2 3 2 2 2 2 2 2 3 3 4 3 2 2 2 2 3 2 3 6 7 7 8 8 7 7 7 6 6 7 7
2 2 2 2 2 2 2 2 2 2 2 2 2 2 2 2 1 2 2 3 3 3 5 4 2 2 2 2 2 2 2 3 4 7 8 8 8 8 8 8 7 7 7
2 2 2 2 2 2 2 2 2 2 2 2 2 1 2 1 2 2 2 3 3 3 3 4 2 2 2 2 1 2 2 2 3 6 8 9 9 9 9 8 8 8 8
2 3 2 2 2 2 2 2 2 2 2 2 2 2 2 1 2 2 3 3 3 3 2 2 2 2 1 1 0 2 2 1 3 4 7 8 9 9 9 9 9 9 9
2 2 2 3 3 3 2 2 2 2 2 2 1 1 1 1 1 2 2 2 3 2 2 1 1 2 1 1 1 1 2 2 2 2 3 4 6 9 9 9 10 10 10
3 2 2 2 3 3 3 3 2 2 1 2 1 1 2 1 1 2 2 2 2 2 2 1 1 1 1 1 1 2 2 2 2 2 1 2 3 4 5 8 10 11 11
2 2 2 3 4 4 4 3 2 2 2 2 1 1 2 2 1 2 3 3 3 2 2 2 1 2 2 1 1 1 2 2 2 1 1 2 2 3 4 5 9 12 13
2 2 2 2 3 3 3 2 2 2 2 2 2 2 2 2 1 1 2 3 3 5 5 3 2 3 3 2 2 2 2 2 3 2 2 3 3 3 3 4 9 12 13
2 2 2 2 2 3 3 2 2 1 2 3 2 2 2 1 2 2 2 2 2 2 3 4 4 4 3 2 2 3 3 4 4 3 3 3 3 3 3 3 7 10 12
2 2 2 2 2 2 1 2 2 1 2 2 1 2 2 1 2 3 2 2 2 3 3 2 4 4 5 6 4 2 3 3 4 3 2 3 3 3 3 3 5 10 11
2 2 2 2 2 2 0 1 2 2 2 2 1 1 1 0 2 2 1 2 3 3 3 3 3 5 6 7 9 6 5 4 3 3 3 2 3 2 2 3 3 4 6
Wind_Direction
227 232 225 214 226 222 213 232 229 227 232 245 256 249 247 247 259 251 179 192 190 197 202 210 215 218 218 218 219 218 216 215 212 211 210 210 211 214 217 218 216 215 216
223 237 235 230 238 242 237 236 246 243 240 241 253 260 260 260 248 243 199 200 202 208 212 215 217 218 220 221 219 218 217 217 215 213 212 212 213 215 217 218 218 218 218
238 242 248 241 243 246 243 242 251 243 244 246 249 257 257 261 267 257 236 210 208 214 218 222 220 218 220 223 223 221 220 218 216 215 216 215 216 217 217 217 218 218 218
228 247 254 256 254 257 254 244 250 257 257 259 264 264 258 251 256 254 249 232 218 217 218 222 221 219 219 222 223 225 224 219 217 217 218 218 217 217 217 216 218 218 219
238 256 257 261 254 252 258 260 244 254 267 263 260 251 253 249 248 251 250 247 233 221 217 217 217 216 218 221 221 225 226 223 220 219 221 221 220 219 218 217 218 219 220
226 255 254 264 265 258 259 262 261 246 257 256 265 266 257 252 241 241 246 248 236 228 228 223 207 217 219 218 220 223 226 228 225 223 224 223 222 221 220 220 221 220 221
231 236 256 245 247 245 248 252 256 259 252 248 261 278 267 250 239 233 230 242 246 234 223 213 216 211 209 218 220 222 225 227 227 226 225 224 222 220 220 220 222 222 222
236 242 245 256 250 240 246 246 247 242 254 239 238 273 287 272 264 248 225 230 246 241 227 222 214 207 216 202 212 219 222 226 227 226 225 224 222 222 223 223 223 222 221
235 256 247 251 256 241 236 238 239 234 246 251 217 203 229 254 296 256 241 236 230 239 239 227 223 211 218 214 193 209 216 220 227 231 229 225 225 226 227 225 223 222 221
239 236 254 256 256 253 249 244 222 236 235 246 246 230 239 248 253 290 280 261 243 236 236 242 232 220 215 208 203 194 205 213 222 231 234 232 231 232 230 227 225 223 223
218 227 232 244 258 259 263 258 245 235 226 232 246 257 259 259 250 252 277 285 279 249 232 228 222 217 220 214 205 195 197 201 210 225 232 234 238 239 234 231 227 225 224
215 230 237 241 256 263 262 254 242 239 225 227 241 244 247 257 251 251 267 278 273 265 255 237 223 217 217 207 215 193 188 194 204 216 226 233 238 237 236 236 231 227 226
256 251 276 266 268 273 268 261 240 240 226 214 233 242 245 258 261 259 264 275 283 284 270 248 221 211 222 187 184 188 190 195 201 213 223 229 234 234 234 235 229 227 227
307 268 264 264 267 271 278 274 259 245 217 226 243 239 249 256 262 258 254 270 285 281 273 272 258 208 200 179 183 193 197 199 202 210 220 223 225 226 229 229 223 221 224
308 302 273 266 264 264 269 265 245 242 231 236 243 243 244 262 263 268 267 247 255 278 279 267 265 246 193 181 186 206 194 203 205 206 213 218 217 217 219 218 214 211 211
325 325 311 280 269 269 256 249 249 225 220 232 241 248 250 256 274 278 274 268 251 259 274 277 271 255 259 253 214 225 207 192 202 206 213 212 209 208 209 211 211 209 208
327 319 319 305 292 291 273 252 257 247 231 242 257 254 258 263 278 280 285 281 269 260 267 278 273 256 255 267 249 246 207 190 192 207 208 208 208 208 209 211 212 211 209
328 317 309 311 298 306 290 251 253 253 250 257 260 271 281 289 285 291 298 290 281 269 263 280 287 278 260 251 234 249 248 216 197 205 204 205 208 209 211 212 214 214 212
330 318 306 312 313 301 293 265 242 250 255 251 252 257 272 279 283 296 293 290 287 287 280 284 292 298 287 278 267 266 263 253 238 211 206 207 209 210 212 213 216 215 213
322 324 321 317 317 311 312 309 294 271 258 270 267 276 278 278 294 302 292 298 301 302 298 286 281 287 287 274 251 254 265 250 258 244 215 205 206 210 216 216 218 217 216
327 331 329 323 323 329 336 334 321 308 315 316 335 348 342 337 300 276 288 306 305 300 303 300 286 288 285 285 268 264 266 268 270 247 233 223 208 209 214 221 224 222 219
321 326 342 347 351 346 359 344 320 317 317 320 325 321 298 249 215 220 237 254 252 259 282 284 287 292 292 284 286 283 279 278 276 247 236 252 230 223 216 211 212 212 215
321 333 346 2 353 343 343 311 313 308 311 296 280 275 287 302 264 235 243 237 239 236 232 244 264 273 280 289 300 295 288 286 275 255 240 254 241 243 235 228 210 208 210
324 334 333 336 332 338 331 332 321 274 276 271 269 276 280 299 326 322 293 290 281 276 247 227 237 252 264 279 267 265 266 273 271 261 238 246 243 240 242 221 214 211 210
321 322 321 325 337 352 332 322 318 296 285 299 302 315 296 312 352 341 310 303 301 301 314 279 249 256 260 264 260 262 263 265 276 270 241 242 253 250 242 231 224 216 214
296 305 320 329 329 337 334 276 297 302 319 326 313 318 357 359 351 356 317 305 299 301 318 314 288 264 251 250 242 228 237 253 266 274 257 244 257 265 269 246 220 206 216